StationID,Date,MaxTemp,MinTemp,Precipitation,Snowfall,SnowDepth
"USC00048963","1927-10-01",,,0.00,,
"USC00048963","1927-10-02",,,0.00,,
"USC00048963","1927-10-03",,,0.00,,
"USC00048963","1927-10-04",,,0.00,,
"USC00048963","1927-10-05",,,0.00,,
"USC00048963","1927-10-06",,,0.00,,
"USC00048963","1927-10-07",,,0.00,,
"USC00048963","1927-10-08",,,0.00,,
"USC00048963","1927-10-09",,,0.00,,
"USC00048963","1927-10-10",,,0.00,,
"USC00048963","1927-10-11",,,0.00,,
"USC00048963","1927-10-12",,,0.00,,
"USC00048963","1927-10-13",,,0.00,,
"USC00048963","1927-10-14",,,0.00,,
"USC00048963","1927-10-15",,,0.00,,
"USC00048963","1927-10-16",,,0.00,,
"USC00048963","1927-10-17",,,0.00,,
"USC00048963","1927-10-18",,,0.00,,
"USC00048963","1927-10-19",,,0.00,,
"USC00048963","1927-10-20",,,0.00,,
"USC00048963","1927-10-21",,,0.00,,
"USC00048963","1927-10-22",,,0.00,,
"USC00048963","1927-10-23",,,0.00,,
"USC00048963","1927-10-24",,,0.00,,
"USC00048963","1927-10-25",68.00,57.02,5.00,,
"USC00048963","1927-10-26",55.04,51.98,0.00,,
"USC00048963","1927-10-27",60.08,55.94,216.00,,
"USC00048963","1927-10-28",55.04,51.08,0.00,,
"USC00048963","1927-10-29",60.98,55.94,0.00,,
"USC00048963","1927-10-30",53.06,50.00,0.00,,
"USC00048963","1927-10-31",46.94,46.94,338.00,,
"USC00048963","1927-12-01",78.08,64.04,0.00,,
"USC00048963","1927-12-02",80.06,64.94,0.00,,
"USC00048963","1927-12-03",80.06,51.98,0.00,,
"USC00048963","1927-12-04",66.92,51.98,0.00,,
"USC00048963","1927-12-05",64.94,55.04,0.00,,
"USC00048963","1927-12-06",69.98,55.94,0.00,,
"USC00048963","1927-12-07",60.98,44.06,0.00,,
"USC00048963","1927-12-08",60.08,35.06,0.00,,
"USC00048963","1927-12-09",55.04,37.94,0.00,,
"USC00048963","1927-12-10",50.00,48.02,300.00,,
"USC00048963","1927-12-11",53.96,44.96,13.00,,
"USC00048963","1927-12-12",51.98,35.96,0.00,,
"USC00048963","1927-12-13",55.04,42.98,0.00,,
"USC00048963","1927-12-14",55.04,51.08,71.00,,
"USC00048963","1927-12-15",60.08,42.98,0.00,,
"USC00048963","1927-12-16",59.00,39.92,0.00,,
"USC00048963","1927-12-17",60.08,37.94,0.00,,
"USC00048963","1927-12-18",60.08,39.92,0.00,,
"USC00048963","1927-12-19",64.94,41.00,0.00,,
"USC00048963","1927-12-20",55.04,33.98,0.00,,
"USC00048963","1927-12-21",50.00,42.98,114.00,,
"USC00048963","1927-12-22",59.00,35.96,0.00,,
"USC00048963","1927-12-23",60.08,35.06,0.00,,
"USC00048963","1927-12-24",55.04,37.04,0.00,,
"USC00048963","1927-12-25",,,0.00,,
"USC00048963","1927-12-26",53.96,46.04,533.00,,
"USC00048963","1927-12-27",55.94,50.00,0.00,,
"USC00048963","1927-12-28",55.04,46.04,0.00,,
"USC00048963","1927-12-29",55.04,51.08,5.00,,
"USC00048963","1927-12-30",57.02,51.98,18.00,,
"USC00048963","1927-12-31",60.08,46.04,0.00,,
"USC00048963","1928-01-01",60.08,44.06,0.00,,
"USC00048963","1928-01-02",71.06,44.96,0.00,,
"USC00048963","1928-01-03",71.96,46.04,0.00,,
"USC00048963","1928-01-04",69.98,57.02,0.00,,
"USC00048963","1928-01-05",69.98,48.02,0.00,,
"USC00048963","1928-01-06",73.04,42.08,0.00,,
"USC00048963","1928-01-07",78.08,46.04,0.00,,
"USC00048963","1928-01-08",78.98,55.94,0.00,,
"USC00048963","1928-01-09",100.04,35.96,0.00,,
"USC00048963","1928-01-10",96.08,32.00,0.00,,
"USC00048963","1928-01-11",100.04,37.94,0.00,,
"USC00048963","1928-01-12",100.04,44.06,0.00,,
"USC00048963","1928-01-13",82.04,35.96,0.00,,
"USC00048963","1928-01-14",89.96,33.98,0.00,,
"USC00048963","1928-01-15",71.96,30.02,10.00,,
"USC00048963","1928-01-16",66.02,28.04,69.00,,
"USC00048963","1928-01-17",73.94,28.04,0.00,,
"USC00048963","1928-01-18",82.04,26.06,0.00,,
"USC00048963","1928-01-19",86.00,24.08,0.00,,
"USC00048963","1928-01-20",84.02,24.08,0.00,,
"USC00048963","1928-01-21",,,0.00,,
"USC00048963","1928-01-22",,,0.00,,
"USC00048963","1928-01-23",46.04,41.00,0.00,,
"USC00048963","1928-01-24",57.92,32.00,0.00,,
"USC00048963","1928-01-25",60.08,30.92,0.00,,
"USC00048963","1928-01-26",73.94,60.98,0.00,,
"USC00048963","1928-01-27",75.92,60.08,0.00,,
"USC00048963","1928-01-28",75.92,57.92,0.00,,
"USC00048963","1928-01-29",62.06,46.04,0.00,,
"USC00048963","1928-01-30",64.04,44.96,0.00,,
"USC00048963","1928-01-31",60.08,46.04,0.00,,
"USC00048963","1928-02-01",60.08,50.00,0.00,,
"USC00048963","1928-02-02",64.04,50.00,0.00,,
"USC00048963","1928-02-03",59.00,53.96,76.00,,
"USC00048963","1928-02-04",51.98,50.00,432.00,,
"USC00048963","1928-02-05",55.94,51.08,0.00,,
"USC00048963","1928-02-06",69.98,44.96,0.00,,
"USC00048963","1928-02-07",75.92,50.00,0.00,,
"USC00048963","1928-02-08",75.92,53.06,0.00,,
"USC00048963","1928-02-09",66.02,55.94,0.00,,
"USC00048963","1928-02-10",68.00,55.94,0.00,,
"USC00048963","1928-02-11",62.06,46.04,0.00,,
"USC00048963","1928-02-12",53.96,46.04,0.00,,
"USC00048963","1928-02-13",64.94,44.96,0.00,,
"USC00048963","1928-02-14",60.08,42.98,0.00,,
"USC00048963","1928-02-15",57.02,46.04,0.00,,
"USC00048963","1928-02-16",62.06,50.00,0.00,,
"USC00048963","1928-02-17",75.92,57.92,0.00,,
"USC00048963","1928-02-18",78.08,46.94,0.00,,
"USC00048963","1928-02-19",69.98,60.08,0.00,,
"USC00048963","1928-02-20",73.94,44.96,0.00,,
"USC00048963","1928-02-21",57.02,42.08,0.00,,
"USC00048963","1928-02-22",69.98,55.94,0.00,,
"USC00048963","1928-02-23",66.02,46.04,0.00,,
"USC00048963","1928-02-24",57.92,48.02,0.00,,
"USC00048963","1928-02-25",62.06,46.04,0.00,,
"USC00048963","1928-02-26",73.04,64.04,0.00,,
"USC00048963","1928-02-27",73.04,46.94,0.00,,
"USC00048963","1928-02-28",57.92,46.04,0.00,,
"USC00048963","1928-02-29",62.06,50.00,0.00,,
"USC00048963","1928-06-01",68.00,57.92,0.00,,
"USC00048963","1928-06-02",68.00,57.92,0.00,,
"USC00048963","1928-06-03",68.00,57.02,0.00,,
"USC00048963","1928-06-04",71.06,62.06,0.00,,
"USC00048963","1928-06-05",71.96,60.08,0.00,,
"USC00048963","1928-06-06",69.98,60.98,0.00,,
"USC00048963","1928-06-07",55.94,51.08,0.00,,
"USC00048963","1928-06-08",69.98,62.06,0.00,,
"USC00048963","1928-06-09",71.96,64.04,0.00,,
"USC00048963","1928-06-10",66.02,57.92,0.00,,
"USC00048963","1928-06-11",68.00,60.08,0.00,,
"USC00048963","1928-06-12",69.08,64.04,0.00,,
"USC00048963","1928-06-13",71.96,60.08,0.00,,
"USC00048963","1928-06-14",73.04,62.96,0.00,,
"USC00048963","1928-06-15",78.08,66.92,0.00,,
"USC00048963","1928-06-16",77.00,68.00,0.00,,
"USC00048963","1928-06-17",69.98,62.06,0.00,,
"USC00048963","1928-06-18",64.04,57.92,0.00,,
"USC00048963","1928-06-19",62.06,57.02,18.00,,
"USC00048963","1928-06-20",69.98,60.08,0.00,,
"USC00048963","1928-06-21",69.98,60.08,0.00,,
"USC00048963","1928-06-22",73.94,64.04,0.00,,
"USC00048963","1928-06-23",69.98,62.06,0.00,,
"USC00048963","1928-06-24",69.08,60.98,0.00,,
"USC00048963","1928-06-25",71.96,64.04,0.00,,
"USC00048963","1928-06-26",75.92,62.96,0.00,,
"USC00048963","1928-06-27",71.96,66.02,0.00,,
"USC00048963","1928-06-28",78.08,62.96,0.00,,
"USC00048963","1928-06-29",71.96,64.04,0.00,,
"USC00048963","1928-06-30",71.96,60.08,0.00,,
"USC00048963","1928-07-01",71.96,62.06,0.00,,
"USC00048963","1928-07-02",69.98,60.08,0.00,,
"USC00048963","1928-07-03",73.04,60.98,0.00,,
"USC00048963","1928-07-04",77.00,66.02,0.00,,
"USC00048963","1928-07-05",75.92,69.98,0.00,,
"USC00048963","1928-07-06",73.94,64.04,0.00,,
"USC00048963","1928-07-07",71.96,64.04,0.00,,
"USC00048963","1928-07-08",69.98,60.08,0.00,,
"USC00048963","1928-07-09",73.94,60.08,0.00,,
"USC00048963","1928-07-10",73.94,62.06,0.00,,
"USC00048963","1928-07-11",73.04,62.06,0.00,,
"USC00048963","1928-07-12",75.02,60.08,0.00,,
"USC00048963","1928-07-13",75.92,64.04,0.00,,
"USC00048963","1928-07-14",82.04,71.96,0.00,,
"USC00048963","1928-07-15",82.04,69.98,0.00,,
"USC00048963","1928-07-16",82.04,71.96,0.00,,
"USC00048963","1928-07-17",82.04,71.96,0.00,,
"USC00048963","1928-07-18",80.06,68.00,0.00,,
"USC00048963","1928-07-19",71.96,62.96,0.00,,
"USC00048963","1928-07-20",71.96,62.06,0.00,,
"USC00048963","1928-07-21",73.94,62.06,0.00,,
"USC00048963","1928-07-22",73.04,62.06,0.00,,
"USC00048963","1928-07-23",75.02,62.96,0.00,,
"USC00048963","1928-07-24",75.92,62.06,0.00,,
"USC00048963","1928-07-25",80.06,64.04,0.00,,
"USC00048963","1928-07-26",80.06,62.06,0.00,,
"USC00048963","1928-07-27",78.08,66.02,0.00,,
"USC00048963","1928-07-28",73.94,62.96,0.00,,
"USC00048963","1928-07-29",84.02,75.02,0.00,,
"USC00048963","1928-07-30",84.02,66.92,0.00,,
"USC00048963","1928-07-31",84.02,73.04,0.00,,
"USC00048963","1928-08-01",80.06,68.00,0.00,,
"USC00048963","1928-08-02",71.96,64.04,0.00,,
"USC00048963","1928-08-03",71.96,64.04,0.00,,
"USC00048963","1928-08-04",68.00,66.02,0.00,,
"USC00048963","1928-08-05",75.02,62.06,0.00,,
"USC00048963","1928-08-06",71.96,57.02,0.00,,
"USC00048963","1928-08-07",69.98,68.00,0.00,,
"USC00048963","1928-08-08",80.96,35.06,0.00,,
"USC00048963","1928-08-09",80.06,71.96,0.00,,
"USC00048963","1928-08-10",75.02,60.08,0.00,,
"USC00048963","1928-08-11",80.06,50.00,0.00,,
"USC00048963","1928-08-12",89.06,69.98,0.00,,
"USC00048963","1928-08-13",89.06,,0.00,,
"USC00048963","1928-08-14",80.06,,0.00,,
"USC00048963","1928-08-15",73.94,,0.00,,
"USC00048963","1928-08-16",,62.96,0.00,,
"USC00048963","1928-08-17",,,0.00,,
"USC00048963","1928-08-18",,,0.00,,
"USC00048963","1928-08-19",,,0.00,,
"USC00048963","1928-08-20",,,0.00,,
"USC00048963","1928-08-21",51.98,,0.00,,
"USC00048963","1928-08-22",,,0.00,,
"USC00048963","1928-08-23",,,0.00,,
"USC00048963","1928-08-24",,,0.00,,
"USC00048963","1928-08-25",,,0.00,,
"USC00048963","1928-08-26",,,0.00,,
"USC00048963","1928-08-27",,,0.00,,
"USC00048963","1928-08-28",,,0.00,,
"USC00048963","1928-08-29",80.06,62.06,0.00,,
"USC00048963","1928-08-30",82.04,71.06,0.00,,
"USC00048963","1928-08-31",87.98,64.94,0.00,,
"USC00048963","1929-07-01",73.94,62.06,,,
"USC00048963","1929-07-02",75.92,64.04,,,
"USC00048963","1929-07-03",78.08,69.98,,,
"USC00048963","1929-07-04",73.94,64.94,,,
"USC00048963","1929-07-05",71.96,64.04,,,
"USC00048963","1929-07-06",75.02,66.02,,,
"USC00048963","1929-07-07",75.02,64.94,,,
"USC00048963","1929-07-08",75.92,64.04,,,
"USC00048963","1929-07-09",75.02,64.04,,,
"USC00048963","1929-07-10",75.92,64.04,,,
"USC00048963","1929-07-11",73.94,66.02,,,
"USC00048963","1929-07-12",75.02,64.04,,,
"USC00048963","1929-07-13",82.94,66.02,,,
"USC00048963","1929-07-14",86.00,73.94,,,
"USC00048963","1929-07-15",91.94,80.06,,,
"USC00048963","1929-07-16",86.00,77.00,,,
"USC00048963","1929-07-17",84.02,75.02,,,
"USC00048963","1929-07-18",80.06,69.08,,,
"USC00048963","1929-07-19",78.98,66.02,,,
"USC00048963","1929-07-20",82.04,69.98,,,
"USC00048963","1929-07-21",84.02,73.94,,,
"USC00048963","1929-07-22",87.08,71.96,,,
"USC00048963","1929-07-23",87.98,73.04,,,
"USC00048963","1929-07-24",84.02,73.04,,,
"USC00048963","1929-07-25",80.06,68.00,,,
"USC00048963","1929-07-26",75.92,60.08,,,
"USC00048963","1929-07-27",73.94,66.92,,,
"USC00048963","1929-07-28",75.92,60.98,,,
"USC00048963","1929-07-29",75.92,62.06,,,
"USC00048963","1929-07-30",71.96,62.96,,,
"USC00048963","1929-07-31",73.04,64.04,,,
"USC00048963","1929-08-01",80.06,64.04,0.00,,
"USC00048963","1929-08-02",82.04,69.98,0.00,,
"USC00048963","1929-08-03",80.06,69.98,0.00,,
"USC00048963","1929-08-04",84.02,71.96,0.00,,
"USC00048963","1929-08-05",84.02,69.98,0.00,,
"USC00048963","1929-08-06",82.94,69.98,0.00,,
"USC00048963","1929-08-07",78.08,69.98,0.00,,
"USC00048963","1929-08-08",78.08,68.00,0.00,,
"USC00048963","1929-08-09",75.92,66.02,0.00,,
"USC00048963","1929-08-10",69.08,64.04,0.00,,
"USC00048963","1929-08-11",71.96,62.06,0.00,,
"USC00048963","1929-08-12",73.94,64.04,0.00,,
"USC00048963","1929-08-13",78.08,66.92,0.00,,
"USC00048963","1929-08-14",86.00,75.02,0.00,,
"USC00048963","1929-08-15",82.94,71.96,0.00,,
"USC00048963","1929-08-16",84.92,71.06,0.00,,
"USC00048963","1929-08-17",75.92,69.08,0.00,,
"USC00048963","1929-08-18",80.06,71.06,0.00,,
"USC00048963","1929-08-19",82.04,69.98,0.00,,
"USC00048963","1929-08-20",78.98,68.00,0.00,,
"USC00048963","1929-08-21",78.08,66.92,0.00,,
"USC00048963","1929-08-22",73.94,66.02,0.00,,
"USC00048963","1929-08-23",75.92,66.02,0.00,,
"USC00048963","1929-08-24",77.00,68.00,0.00,,
"USC00048963","1929-08-25",82.94,66.92,0.00,,
"USC00048963","1929-08-26",82.04,69.98,0.00,,
"USC00048963","1929-08-27",84.02,71.96,0.00,,
"USC00048963","1929-08-28",86.00,75.92,0.00,,
"USC00048963","1929-08-29",91.04,73.94,0.00,,
"USC00048963","1929-08-30",89.06,75.02,0.00,,
"USC00048963","1929-08-31",89.96,75.92,0.00,,
"USC00048963","1929-09-01",84.02,73.94,0.00,,
"USC00048963","1929-09-02",80.06,71.06,0.00,,
"USC00048963","1929-09-03",71.96,64.94,0.00,,
"USC00048963","1929-09-04",71.96,64.94,8.00,,
"USC00048963","1929-09-05",69.98,64.04,0.00,,
"USC00048963","1929-09-06",69.98,62.06,0.00,,
"USC00048963","1929-09-07",68.00,64.94,0.00,,
"USC00048963","1929-09-08",73.94,62.06,0.00,,
"USC00048963","1929-09-09",71.96,62.96,0.00,,
"USC00048963","1929-09-10",71.96,62.96,0.00,,
"USC00048963","1929-09-11",75.92,64.04,0.00,,
"USC00048963","1929-09-12",78.98,64.94,0.00,,
"USC00048963","1929-09-13",84.92,68.00,0.00,,
"USC00048963","1929-09-14",84.02,69.98,0.00,,
"USC00048963","1929-09-15",78.08,64.04,0.00,,
"USC00048963","1929-09-16",93.92,69.08,0.00,,
"USC00048963","1929-09-17",86.00,78.98,0.00,,
"USC00048963","1929-09-18",73.94,68.00,76.00,,
"USC00048963","1929-09-19",75.92,68.00,0.00,,
"USC00048963","1929-09-20",71.06,64.04,0.00,,
"USC00048963","1929-09-21",75.02,66.02,0.00,,
"USC00048963","1929-09-22",71.06,64.94,0.00,,
"USC00048963","1929-09-23",71.96,60.08,0.00,,
"USC00048963","1929-09-24",69.98,60.08,0.00,,
"USC00048963","1929-09-25",69.08,62.06,0.00,,
"USC00048963","1929-09-26",71.06,62.06,0.00,,
"USC00048963","1929-09-27",68.00,62.06,0.00,,
"USC00048963","1929-09-28",69.98,57.92,0.00,,
"USC00048963","1929-09-29",69.98,57.92,0.00,,
"USC00048963","1929-09-30",75.92,60.08,0.00,,
"USC00048963","1929-10-01",77.00,64.04,10.00,,
"USC00048963","1929-10-02",75.02,68.00,0.00,,
"USC00048963","1929-10-03",80.96,68.00,0.00,,
"USC00048963","1929-10-04",80.06,68.00,0.00,,
"USC00048963","1929-10-05",82.04,68.00,0.00,,
"USC00048963","1929-10-06",82.04,69.98,0.00,,
"USC00048963","1929-10-07",78.08,66.02,0.00,,
"USC00048963","1929-10-08",71.96,60.08,0.00,,
"USC00048963","1929-10-09",69.08,60.08,0.00,,
"USC00048963","1929-10-10",71.06,60.98,0.00,,
"USC00048963","1929-10-11",73.04,60.08,0.00,,
"USC00048963","1929-10-12",71.06,60.08,0.00,,
"USC00048963","1929-10-13",71.06,60.08,0.00,,
"USC00048963","1929-10-14",69.98,62.06,0.00,,
"USC00048963","1929-10-15",69.08,62.96,0.00,,
"USC00048963","1929-10-16",66.92,60.98,0.00,,
"USC00048963","1929-10-17",64.94,60.08,0.00,,
"USC00048963","1929-10-18",69.98,62.96,0.00,,
"USC00048963","1929-10-19",91.94,71.06,0.00,,
"USC00048963","1929-10-20",91.94,69.98,0.00,,
"USC00048963","1929-10-21",93.92,66.02,0.00,,
"USC00048963","1929-10-22",89.96,69.98,0.00,,
"USC00048963","1929-10-23",89.96,71.96,0.00,,
"USC00048963","1929-10-24",82.94,69.98,0.00,,
"USC00048963","1929-10-25",82.04,60.08,0.00,,
"USC00048963","1929-10-26",73.04,66.02,0.00,,
"USC00048963","1929-10-27",68.00,50.00,0.00,,
"USC00048963","1929-10-28",75.02,60.08,0.00,,
"USC00048963","1929-10-29",71.96,64.04,0.00,,
"USC00048963","1929-10-30",71.96,57.02,0.00,,
"USC00048963","1929-10-31",73.94,60.08,0.00,,
"USC00048963","1929-11-01",82.04,62.06,,,
"USC00048963","1929-11-02",86.00,64.04,,,
"USC00048963","1929-11-03",82.94,73.04,,,
"USC00048963","1929-11-04",86.00,68.00,,,
"USC00048963","1929-11-05",73.94,66.02,,,
"USC00048963","1929-11-06",64.94,55.04,,,
"USC00048963","1929-11-07",77.00,57.92,,,
"USC00048963","1929-11-08",71.96,64.04,,,
"USC00048963","1929-11-09",73.04,55.94,,,
"USC00048963","1929-11-10",62.96,53.06,,,
"USC00048963","1929-11-11",71.96,48.02,,,
"USC00048963","1929-11-12",73.04,64.94,,,
"USC00048963","1929-11-13",73.94,64.94,,,
"USC00048963","1929-11-14",75.92,60.98,,,
"USC00048963","1929-11-15",80.06,59.00,,,
"USC00048963","1929-11-16",80.96,60.08,,,
"USC00048963","1929-11-17",86.00,62.06,,,
"USC00048963","1929-11-18",82.04,66.02,,,
"USC00048963","1929-11-19",75.92,57.92,,,
"USC00048963","1929-11-20",71.96,51.98,,,
"USC00048963","1929-11-21",69.98,48.02,,,
"USC00048963","1929-11-22",78.08,55.04,,,
"USC00048963","1929-11-23",71.06,50.00,,,
"USC00048963","1929-11-24",75.92,53.96,,,
"USC00048963","1929-11-25",69.08,46.04,,,
"USC00048963","1929-11-26",73.94,44.96,,,
"USC00048963","1929-11-27",78.98,48.02,,,
"USC00048963","1929-11-28",75.92,46.94,,,
"USC00048963","1929-11-29",69.98,46.04,,,
"USC00048963","1929-11-30",66.02,42.08,,,
"USC00048963","1929-12-01",64.04,53.96,0.00,,
"USC00048963","1929-12-02",66.02,41.00,0.00,,
"USC00048963","1929-12-03",73.94,46.04,0.00,,
"USC00048963","1929-12-04",75.02,50.00,0.00,,
"USC00048963","1929-12-05",80.06,60.08,0.00,,
"USC00048963","1929-12-06",73.04,46.04,0.00,,
"USC00048963","1929-12-07",66.02,42.08,0.00,,
"USC00048963","1929-12-08",64.04,50.00,0.00,,
"USC00048963","1929-12-09",64.94,46.04,0.00,,
"USC00048963","1929-12-10",64.04,53.96,0.00,,
"USC00048963","1929-12-11",66.02,42.98,0.00,,
"USC00048963","1929-12-12",66.02,57.02,3.00,,
"USC00048963","1929-12-13",66.92,50.00,0.00,,
"USC00048963","1929-12-14",75.92,48.02,0.00,,
"USC00048963","1929-12-15",69.08,44.96,0.00,,
"USC00048963","1929-12-16",66.92,46.94,0.00,,
"USC00048963","1929-12-17",78.08,48.92,0.00,,
"USC00048963","1929-12-18",80.06,66.02,0.00,,
"USC00048963","1929-12-19",80.06,48.02,0.00,,
"USC00048963","1929-12-20",73.94,60.98,0.00,,
"USC00048963","1929-12-21",71.06,42.08,0.00,,
"USC00048963","1929-12-22",69.98,37.94,0.00,,
"USC00048963","1929-12-23",75.02,35.96,0.00,,
"USC00048963","1929-12-24",77.00,46.04,0.00,,
"USC00048963","1929-12-25",75.92,41.00,0.00,,
"USC00048963","1929-12-26",73.04,39.02,0.00,,
"USC00048963","1929-12-27",73.94,42.98,0.00,,
"USC00048963","1929-12-28",77.00,53.96,0.00,,
"USC00048963","1929-12-29",78.08,48.92,0.00,,
"USC00048963","1929-12-30",73.94,69.98,0.00,,
"USC00048963","1929-12-31",71.96,55.94,0.00,,
"USC00048963","1930-01-01",78.08,46.04,0.00,,
"USC00048963","1930-01-02",75.92,46.04,0.00,,
"USC00048963","1930-01-03",73.04,51.98,0.00,,
"USC00048963","1930-01-04",60.08,33.98,0.00,,
"USC00048963","1930-01-05",53.06,50.00,279.00,,
"USC00048963","1930-01-06",53.96,37.94,152.00,,
"USC00048963","1930-01-07",55.94,39.02,0.00,,
"USC00048963","1930-01-08",55.94,32.00,0.00,,
"USC00048963","1930-01-09",50.00,42.98,203.00,,
"USC00048963","1930-01-10",48.92,39.02,229.00,,
"USC00048963","1930-01-11",48.02,41.00,508.00,,
"USC00048963","1930-01-12",51.08,35.96,203.00,,
"USC00048963","1930-01-13",53.06,32.00,0.00,,
"USC00048963","1930-01-14",53.06,44.06,130.00,,
"USC00048963","1930-01-15",57.92,53.96,635.00,,
"USC00048963","1930-01-16",66.02,48.02,0.00,,
"USC00048963","1930-01-17",62.96,44.06,0.00,,
"USC00048963","1930-01-18",64.94,50.00,0.00,,
"USC00048963","1930-01-19",57.92,39.92,0.00,,
"USC00048963","1930-01-20",64.94,42.98,0.00,,
"USC00048963","1930-01-21",69.08,53.96,0.00,,
"USC00048963","1930-01-22",66.02,53.06,0.00,,
"USC00048963","1930-01-23",69.08,42.08,0.00,,
"USC00048963","1930-01-24",68.00,46.04,0.00,,
"USC00048963","1930-01-25",60.08,50.00,0.00,,
"USC00048963","1930-01-26",60.08,48.92,0.00,,
"USC00048963","1930-01-27",64.94,50.00,117.00,,
"USC00048963","1930-01-28",64.94,44.06,0.00,,
"USC00048963","1930-01-29",68.00,46.04,0.00,,
"USC00048963","1930-01-30",75.02,48.02,0.00,,
"USC00048963","1930-01-31",73.94,59.00,0.00,,
"USC00048963","1930-02-01",78.98,60.08,0.00,,
"USC00048963","1930-02-02",75.92,48.02,0.00,,
"USC00048963","1930-02-03",80.06,62.96,0.00,,
"USC00048963","1930-02-04",77.00,46.04,0.00,,
"USC00048963","1930-02-05",71.96,44.96,0.00,,
"USC00048963","1930-02-06",66.02,46.04,0.00,,
"USC00048963","1930-02-07",71.96,42.08,0.00,,
"USC00048963","1930-02-08",66.92,42.98,0.00,,
"USC00048963","1930-02-09",73.04,41.00,0.00,,
"USC00048963","1930-02-10",68.00,42.08,0.00,,
"USC00048963","1930-02-11",62.06,39.92,0.00,,
"USC00048963","1930-02-12",64.04,42.08,0.00,,
"USC00048963","1930-02-13",68.00,44.96,0.00,,
"USC00048963","1930-02-14",66.02,46.94,0.00,,
"USC00048963","1930-02-15",69.98,51.08,0.00,,
"USC00048963","1930-02-16",69.98,57.92,0.00,,
"USC00048963","1930-02-17",89.06,51.98,0.00,,
"USC00048963","1930-02-18",77.00,50.00,0.00,,
"USC00048963","1930-02-19",60.98,35.96,0.00,,
"USC00048963","1930-02-20",55.94,51.98,0.00,,
"USC00048963","1930-02-21",55.94,44.06,0.00,,
"USC00048963","1930-02-22",55.04,50.00,218.00,,
"USC00048963","1930-02-23",66.02,42.08,0.00,,
"USC00048963","1930-02-24",66.02,44.06,0.00,,
"USC00048963","1930-02-25",62.06,33.98,0.00,,
"USC00048963","1930-02-26",64.94,35.96,0.00,,
"USC00048963","1930-02-27",57.92,30.92,0.00,,
"USC00048963","1930-02-28",62.06,30.02,0.00,,
"USC00048963","1930-03-01",69.98,33.98,0.00,,
"USC00048963","1930-03-02",69.98,37.94,0.00,,
"USC00048963","1930-03-03",55.04,46.94,5.00,,
"USC00048963","1930-03-04",57.92,51.08,384.00,,
"USC00048963","1930-03-05",53.96,51.08,10.00,,
"USC00048963","1930-03-06",60.08,37.94,0.00,,
"USC00048963","1930-03-07",64.94,39.92,0.00,,
"USC00048963","1930-03-08",57.92,39.92,0.00,,
"USC00048963","1930-03-09",60.08,42.08,0.00,,
"USC00048963","1930-03-10",75.92,39.02,0.00,,
"USC00048963","1930-03-11",77.00,37.94,0.00,,
"USC00048963","1930-03-12",71.96,37.94,0.00,,
"USC00048963","1930-03-13",57.92,50.00,0.00,,
"USC00048963","1930-03-14",51.98,39.92,386.00,,
"USC00048963","1930-03-15",51.98,41.00,490.00,,
"USC00048963","1930-03-16",55.04,44.06,89.00,,
"USC00048963","1930-03-17",60.98,39.02,0.00,,
"USC00048963","1930-03-18",69.08,44.06,5.00,,
"USC00048963","1930-03-19",69.08,35.96,0.00,,
"USC00048963","1930-03-20",64.94,39.02,0.00,,
"USC00048963","1930-03-21",60.08,48.02,0.00,,
"USC00048963","1930-03-22",60.08,46.04,0.00,,
"USC00048963","1930-03-23",86.00,62.06,0.00,,
"USC00048963","1930-03-24",82.94,60.08,0.00,,
"USC00048963","1930-03-25",93.92,53.96,0.00,,
"USC00048963","1930-03-26",82.04,60.08,0.00,,
"USC00048963","1930-03-27",84.02,48.02,0.00,,
"USC00048963","1930-03-28",66.02,44.96,0.00,,
"USC00048963","1930-03-29",62.06,51.98,0.00,,
"USC00048963","1930-03-30",60.08,51.98,20.00,,
"USC00048963","1930-03-31",55.04,46.04,15.00,,
"USC00048963","1930-04-01",60.08,42.08,0.00,,
"USC00048963","1930-04-02",66.02,42.08,0.00,,
"USC00048963","1930-04-03",66.02,46.04,0.00,,
"USC00048963","1930-04-04",71.96,42.08,0.00,,
"USC00048963","1930-04-05",89.06,55.04,0.00,,
"USC00048963","1930-04-06",87.08,53.96,0.00,,
"USC00048963","1930-04-07",71.96,50.00,0.00,,
"USC00048963","1930-04-08",64.04,51.98,0.00,,
"USC00048963","1930-04-09",64.94,55.04,0.00,,
"USC00048963","1930-04-10",66.02,48.92,0.00,,
"USC00048963","1930-04-11",66.02,51.08,0.00,,
"USC00048963","1930-04-12",68.00,48.92,0.00,,
"USC00048963","1930-04-13",59.00,50.00,36.00,,
"USC00048963","1930-04-14",62.06,48.02,0.00,,
"USC00048963","1930-04-15",71.96,42.08,0.00,,
"USC00048963","1930-04-16",71.96,44.96,0.00,,
"USC00048963","1930-04-17",71.06,46.04,0.00,,
"USC00048963","1930-04-18",75.02,48.02,0.00,,
"USC00048963","1930-04-19",87.98,55.94,0.00,,
"USC00048963","1930-04-20",78.98,57.92,0.00,,
"USC00048963","1930-04-21",73.04,55.04,0.00,,
"USC00048963","1930-04-22",82.04,53.06,0.00,,
"USC00048963","1930-04-23",78.08,59.00,0.00,,
"USC00048963","1930-04-24",68.00,55.94,0.00,,
"USC00048963","1930-04-25",69.98,57.92,0.00,,
"USC00048963","1930-04-26",69.98,48.02,0.00,,
"USC00048963","1930-04-27",71.96,51.98,0.00,,
"USC00048963","1930-04-28",68.00,48.02,0.00,,
"USC00048963","1930-04-29",64.04,50.00,0.00,,
"USC00048963","1930-04-30",55.94,50.00,76.00,,
"USC00048963","1930-05-01",64.04,51.98,0.00,,
"USC00048963","1930-05-02",64.94,57.92,0.00,,
"USC00048963","1930-05-03",55.94,48.02,394.00,,